Hourly Data Report for June 17, 2018

OTTAWA INTL A
ONTARIO
Current Station Operator: NAVCAN

45°19'00.000" N
75°40'00.000" W
114.90 m
6106001
71628
YOW

Download Data

Hourly Data (June 2018)
Hourly Data Report for June 17, 2018
TIME
LST
Temp Definition
°C
Dew Point Definition
°C
Rel Hum Definition
%
Precip. Amount Definition
mm

Wind Dir Definition
10's deg

Wind Spd Definition
km/h
Visibility Definition
km
Stn Press Definition
kPa
Hmdx Definition


Wind Chill Definition


Weather Definition


00:00 16.7 12.5 76   18 10 24.1 100.20     LegendNANA
01:00 15.9 12.2 78   19 8 24.1 100.20     Mainly Clear
02:00 15.3 11.8 80   20 10 24.1 100.19     LegendNANA
03:00 14.2 11.7 85   21 11 24.1 100.20     LegendNANA
04:00 14.2 11.6 84   18 10 24.1 100.19     Mainly Clear
05:00 14.1 11.8 86   21 8 24.1 100.25     LegendNANA
06:00 16.0 13.0 82   19 8 24.1 100.31     LegendNANA
07:00 19.0 14.2 74   24 5 24.1 100.39     Mainly Clear
08:00 21.7 14.9 65   36 2 24.1 100.43 26   LegendNANA
09:00 23.8 16.0 61   16 12 24.1 100.36 28   LegendNANA
10:00 26.2 16.2 54   19 7 24.1 100.36 31   Mostly Cloudy
11:00 28.2 15.7 46   18 15 24.1 100.33 33   LegendNANA
12:00 28.8 16.4 46   18 10 24.1 100.25 34   LegendNANA
13:00 29.4 16.6 45   21 15 24.1 100.18 34   Cloudy
14:00 29.9 17.3 46   23 21 24.1 100.17 35   LegendNANA
15:00 29.4 17.9 49   20 20 24.1 100.11 35   LegendNANA
16:00 28.4 16.7 48   20 22 24.1 100.06 33   Cloudy
17:00 27.0 16.1 51   20 24 24.1 100.01 32   LegendNANA
18:00 26.2 16.5 55   20 17 24.1 100.00 31   LegendNANA
19:00 24.8 16.5 60   20 15 24.1 99.97 30   Rain
20:00 23.9 16.5 63   20 12 24.1 99.93 29   LegendNANA
21:00 23.5 16.6 65   19 10 24.1 99.91 29   LegendNANA
22:00 23.5 16.6 65   20 12 24.1 99.90 29   Cloudy
23:00 23.3 16.9 67   20 10 24.1 99.86 29   LegendNANA

Notes on Data Quality.

Legend

  • E = Estimated
  • M = Missing
  • NA = Not Available*
  • [empty] = Indicates an unobserved value
Date modified: